�������l�o���
Date,Time,MP-1(��Sv/h),MP-2(��Sv/h),MP-3(��Sv/h),MP-4(��Sv/h),MP-5(��Sv/h),MP-6(��Sv/h),MP-7(��Sv/h),����,����(m/s),���J
2023/01/11,00:00,0.156,0.140,0.220,0.218,0.216,0.124,0.079,�k�k��,2.7,��
2023/01/11,00:10,0.158,0.141,0.220,0.217,0.215,0.123,0.079,�k��,2.3,��
2023/01/11,00:20,0.157,0.141,0.221,0.218,0.216,0.124,0.079,�k��,1.9,��
2023/01/11,00:30,0.157,0.142,0.221,0.218,0.215,0.124,0.079,�k��,2.7,��
2023/01/11,00:40,0.156,0.141,0.221,0.219,0.215,0.124,0.079,�k��,3.3,��
2023/01/11,00:50,0.156,0.141,0.221,0.216,0.214,0.124,0.078,�k��,4.4,��
2023/01/11,01:00,0.157,0.141,0.221,0.218,0.214,0.124,0.079,�k��,3.3,��
2023/01/11,01:10,0.156,0.141,0.221,0.217,0.215,0.124,0.079,�k��,4.1,��
2023/01/11,01:20,0.157,0.141,0.221,0.218,0.216,0.124,0.079,�k�k��,2.6,��
2023/01/11,01:30,0.156,0.142,0.221,0.218,0.215,0.124,0.079,�k��,1.8,��
2023/01/11,01:40,0.157,0.141,0.222,0.218,0.216,0.124,0.079,�k��,1.6,��
2023/01/11,01:50,0.156,0.141,0.221,0.218,0.215,0.124,0.080,�k��,1.6,��
2023/01/11,02:00,0.157,0.141,0.221,0.216,0.214,0.124,0.078,�k��,2.1,��
2023/01/11,02:10,0.157,0.141,0.221,0.217,0.214,0.123,0.080,�k��,1.7,��
2023/01/11,02:20,0.157,0.141,0.220,0.217,0.215,0.124,0.079,�k�k��,1.2,��
2023/01/11,02:30,0.156,0.142,0.220,0.217,0.215,0.124,0.080,�k��,1.6,��
2023/01/11,02:40,0.156,0.142,0.221,0.218,0.215,0.124,0.079,��,0.6,��
2023/01/11,02:50,0.156,0.141,0.220,0.217,0.215,0.124,0.079,��쐼,0.6,��
2023/01/11,03:00,0.157,0.141,0.221,0.216,0.214,0.124,0.079,�쓌,1.6,��
2023/01/11,03:10,0.157,0.141,0.219,0.216,0.216,0.124,0.079,��쓌,1.4,��
2023/01/11,03:20,0.156,0.141,0.221,0.217,0.215,0.123,0.079,��,2.3,��
2023/01/11,03:30,0.157,0.142,0.221,0.217,0.214,0.125,0.080,��,1.4,��
2023/01/11,03:40,0.157,0.142,0.220,0.217,0.214,0.125,0.079,-,CALM,��
2023/01/11,03:50,0.156,0.142,0.220,0.216,0.215,0.124,0.079,-,CALM,��
2023/01/11,04:00,0.157,0.141,0.221,0.216,0.215,0.124,0.079,��,0.6,��
2023/01/11,04:10,0.156,0.140,0.220,0.216,0.215,0.124,0.078,-,CALM,��
2023/01/11,04:20,0.156,0.141,0.221,0.218,0.215,0.124,0.079,�쓌,1.3,��
2023/01/11,04:30,0.156,0.142,0.220,0.217,0.215,0.124,0.080,��,1.5,��
2023/01/11,04:40,0.156,0.141,0.220,0.217,0.214,0.124,0.079,���쐼,1.1,��
2023/01/11,04:50,0.156,0.141,0.221,0.216,0.215,0.123,0.079,���쐼,1.2,��
2023/01/11,05:00,0.155,0.141,0.221,0.216,0.214,0.124,0.079,���쐼,1.0,��
2023/01/11,05:10,0.156,0.141,0.221,0.217,0.216,0.124,0.079,���쐼,1.8,��
2023/01/11,05:20,0.156,0.141,0.220,0.217,0.215,0.124,0.078,��,3.4,��
2023/01/11,05:30,0.157,0.140,0.220,0.217,0.214,0.124,0.079,���쐼,3.8,��
2023/01/11,05:40,0.157,0.141,0.220,0.216,0.215,0.123,0.079,��,5.3,��
2023/01/11,05:50,0.156,0.141,0.221,0.217,0.215,0.123,0.079,��,6.8,��
2023/01/11,06:00,0.157,0.141,0.219,0.217,0.215,0.124,0.079,��,4.6,��
2023/01/11,06:10,0.157,0.141,0.221,0.218,0.214,0.124,0.079,���k��,1.9,��
2023/01/11,06:20,0.156,0.141,0.220,0.217,0.214,0.123,0.079,���쐼,3.9,��
2023/01/11,06:30,0.156,0.141,0.219,0.216,0.214,0.123,0.079,�쐼,2.1,��
2023/01/11,06:40,0.156,0.141,0.220,0.216,0.214,0.123,0.079,��,3.1,��
2023/01/11,06:50,0.156,0.140,0.220,0.217,0.215,0.124,0.079,���k��,2.4,��
2023/01/11,07:00,0.157,0.140,0.220,0.216,0.214,0.123,0.079,���k��,2.0,��
2023/01/11,07:10,0.157,0.140,0.219,0.216,0.214,0.124,0.079,���k��,2.5,��
2023/01/11,07:20,0.156,0.140,0.220,0.216,0.215,0.123,0.079,���k��,3.1,��
2023/01/11,07:30,0.156,0.141,0.220,0.217,0.215,0.122,0.079,���k��,3.0,��
2023/01/11,07:40,0.157,0.141,0.220,0.216,0.214,0.124,0.079,�k��,4.1,��
2023/01/11,07:50,0.155,0.141,0.220,0.216,0.215,0.124,0.079,���k��,4.6,��
2023/01/11,08:00,0.156,0.141,0.221,0.216,0.214,0.123,0.078,�k��,3.0,��
2023/01/11,08:10,0.156,0.141,0.220,0.216,0.214,0.123,0.078,���k��,2.9,��
2023/01/11,08:20,0.156,0.140,0.220,0.215,0.215,0.123,0.078,��,3.6,��
2023/01/11,08:30,0.156,0.141,0.219,0.217,0.214,0.124,0.078,��,3.0,��
2023/01/11,08:40,0.155,0.141,0.220,0.215,0.214,0.124,0.078,��,2.3,��
2023/01/11,08:50,0.156,0.140,0.219,0.215,0.215,0.123,0.078,���쐼,2.3,��
2023/01/11,09:00,0.156,0.141,0.219,0.216,0.215,0.123,0.078,��,2.9,��
2023/01/11,09:10,0.155,0.141,0.220,0.216,0.213,0.123,0.078,���k��,1.4,��
2023/01/11,09:20,0.156,0.141,0.219,0.215,0.214,0.123,0.078,���k��,3.5,��
2023/01/11,09:30,0.156,0.140,0.220,0.215,0.215,0.122,0.078,��,4.4,��
2023/01/11,09:40,0.156,0.141,0.219,0.215,0.214,0.123,0.079,��,6.5,��
2023/01/11,09:50,0.156,0.141,0.219,0.216,0.215,0.123,0.078,���k��,5.7,��
2023/01/11,10:00,0.156,0.140,0.219,0.216,0.214,0.123,0.078,���k��,4.6,��
2023/01/11,10:10,0.155,0.139,0.220,0.216,0.213,0.123,0.079,��,4.7,��
2023/01/11,10:20,0.155,0.139,0.220,0.216,0.214,0.123,0.078,���k��,6.3,��
2023/01/11,10:30,0.155,0.140,0.219,0.216,0.213,0.124,0.078,���k��,7.5,��
2023/01/11,10:40,0.155,0.139,0.219,0.216,0.215,0.123,0.078,���k��,7.2,��
2023/01/11,10:50,0.155,0.140,0.218,0.216,0.215,0.123,0.079,��,5.7,��
2023/01/11,11:00,0.155,0.140,0.218,0.216,0.215,0.123,0.078,���k��,7.4,��
2023/01/11,11:10,0.155,0.140,0.217,0.216,0.215,0.122,0.078,���k��,7.6,��
2023/01/11,11:20,0.157,0.140,0.220,0.217,0.214,0.123,0.078,���k��,5.0,��
2023/01/11,11:30,0.154,0.140,0.218,0.216,0.215,0.124,0.078,��,5.5,��
2023/01/11,11:40,0.155,0.141,0.218,0.217,0.212,0.123,0.078,���k��,6.0,��
2023/01/11,11:50,0.155,0.139,0.220,0.215,0.214,0.123,0.078,�k��,5.1,��
2023/01/11,12:00,0.155,0.141,0.219,0.216,0.213,0.122,0.078,���k��,4.6,��
2023/01/11,12:10,0.155,0.140,0.218,0.216,0.213,0.122,0.078,��,4.7,��
2023/01/11,12:20,0.155,0.140,0.218,0.216,0.213,0.123,0.079,���쐼,5.3,��
2023/01/11,12:30,0.155,0.140,0.219,0.217,0.214,0.124,0.078,��,5.7,��
2023/01/11,12:40,0.154,0.140,0.217,0.215,0.215,0.124,0.078,��,4.7,��
2023/01/11,12:50,0.155,0.139,0.219,0.217,0.214,0.123,0.079,��,4.9,��
2023/01/11,13:00,0.154,0.139,0.219,0.215,0.214,0.123,0.078,���쐼,4.3,��
2023/01/11,13:10,0.156,0.140,0.219,0.216,0.214,0.124,0.078,��,3.5,��
2023/01/11,13:20,0.155,0.140,0.220,0.215,0.215,0.123,0.078,�k��,5.1,��
2023/01/11,13:30,0.156,0.140,0.219,0.216,0.216,0.123,0.078,�k��,3.1,��
2023/01/11,13:40,0.156,0.140,0.220,0.217,0.214,0.123,0.078,�k��,4.4,��
2023/01/11,13:50,0.156,0.139,0.219,0.217,0.216,0.124,0.078,�k��,3.9,��
2023/01/11,14:00,0.156,0.140,0.218,0.216,0.214,0.124,0.078,��,3.0,��
2023/01/11,14:10,0.156,0.141,0.220,0.217,0.215,0.123,0.078,��,4.5,��
2023/01/11,14:20,0.156,0.140,0.221,0.216,0.212,0.123,0.079,��,7.4,��
2023/01/11,14:30,0.155,0.140,0.220,0.217,0.214,0.123,0.078,���k��,5.6,��
2023/01/11,14:40,0.157,0.140,0.219,0.217,0.213,0.124,0.079,���k��,5.4,��
2023/01/11,14:50,0.156,0.141,0.221,0.216,0.216,0.123,0.079,��,6.7,��
2023/01/11,15:00,0.156,0.140,0.219,0.218,0.215,0.123,0.078,��,7.1,��
2023/01/11,15:10,0.157,0.140,0.220,0.216,0.215,0.123,0.079,��,8.1,��
2023/01/11,15:20,0.156,0.142,0.220,0.217,0.217,0.124,0.079,���k��,5.1,��
2023/01/11,15:30,0.155,0.141,0.221,0.218,0.215,0.123,0.078,��,5.1,��
2023/01/11,15:40,0.156,0.141,0.221,0.217,0.214,0.124,0.078,���쐼,4.9,��
2023/01/11,15:50,0.157,0.142,0.219,0.218,0.216,0.124,0.079,��,4.8,��
2023/01/11,16:00,0.155,0.141,0.219,0.218,0.216,0.124,0.078,��,4.6,��
2023/01/11,16:10,0.156,0.140,0.221,0.219,0.216,0.123,0.079,��,5.4,��
2023/01/11,16:20,0.156,0.141,0.220,0.217,0.216,0.124,0.078,��,7.0,��
2023/01/11,16:30,0.157,0.140,0.219,0.216,0.215,0.125,0.078,���쐼,5.4,��
2023/01/11,16:40,0.155,0.140,0.218,0.217,0.215,0.124,0.079,���쐼,5.5,��
2023/01/11,16:50,0.156,0.141,0.219,0.218,0.215,0.124,0.079,���쐼,6.4,��
2023/01/11,17:00,0.157,0.141,0.220,0.218,0.214,0.125,0.079,���쐼,4.0,��
2023/01/11,17:10,0.155,0.141,0.220,0.218,0.214,0.124,0.079,��,2.9,��
2023/01/11,17:20,0.156,0.140,0.219,0.217,0.215,0.124,0.079,��,4.5,��
2023/01/11,17:30,0.156,0.141,0.218,0.218,0.216,0.124,0.078,��,5.1,��
2023/01/11,17:40,0.156,0.141,0.220,0.217,0.214,0.124,0.078,��,5.7,��
2023/01/11,17:50,0.157,0.141,0.220,0.217,0.214,0.124,0.079,��,5.0,��
2023/01/11,18:00,0.155,0.140,0.220,0.218,0.215,0.124,0.079,��,4.0,��
2023/01/11,18:10,0.156,0.142,0.220,0.218,0.215,0.123,0.078,�쐼,2.8,��
2023/01/11,18:20,0.157,0.141,0.221,0.217,0.214,0.124,0.079,���쐼,4.2,��
2023/01/11,18:30,0.155,0.140,0.220,0.216,0.215,0.124,0.079,���쐼,4.5,��
2023/01/11,18:40,0.156,0.140,0.220,0.217,0.215,0.124,0.079,���쐼,4.7,��
2023/01/11,18:50,0.156,0.141,0.219,0.217,0.216,0.124,0.079,�쐼,2.9,��
2023/01/11,19:00,0.156,0.142,0.220,0.217,0.214,0.124,0.079,�쐼,3.2,��
2023/01/11,19:10,0.155,0.141,0.220,0.216,0.215,0.123,0.078,���쐼,3.4,��
2023/01/11,19:20,0.156,0.141,0.219,0.217,0.216,0.124,0.078,�쐼,3.0,��
2023/01/11,19:30,0.157,0.141,0.221,0.218,0.215,0.125,0.079,��쐼,1.9,��
2023/01/11,19:40,0.156,0.141,0.220,0.217,0.214,0.124,0.079,��쐼,2.2,��
2023/01/11,19:50,0.156,0.141,0.221,0.217,0.216,0.124,0.079,�쐼,2.4,��
2023/01/11,20:00,0.156,0.140,0.220,0.217,0.215,0.124,0.078,��쐼,4.2,��
2023/01/11,20:10,0.156,0.142,0.219,0.218,0.214,0.125,0.078,�쐼,3.2,��
2023/01/11,20:20,0.156,0.140,0.221,0.218,0.214,0.124,0.079,�쐼,4.8,��
2023/01/11,20:30,0.155,0.140,0.220,0.216,0.216,0.125,0.078,�쐼,4.2,��
2023/01/11,20:40,0.157,0.141,0.219,0.216,0.216,0.124,0.079,�쐼,3.7,��
2023/01/11,20:50,0.156,0.141,0.220,0.217,0.214,0.124,0.079,�쐼,2.7,��
2023/01/11,21:00,0.155,0.141,0.220,0.218,0.215,0.124,0.079,�쐼,4.3,��
2023/01/11,21:10,0.155,0.142,0.220,0.217,0.215,0.124,0.079,�쐼,4.2,��
2023/01/11,21:20,0.155,0.140,0.220,0.216,0.215,0.124,0.079,�쐼,4.1,��
2023/01/11,21:30,0.156,0.140,0.221,0.216,0.214,0.124,0.079,�쐼,2.8,��
2023/01/11,21:40,0.156,0.141,0.220,0.218,0.215,0.123,0.079,�쐼,3.0,��
2023/01/11,21:50,0.157,0.140,0.219,0.217,0.216,0.124,0.080,��쐼,3.4,��
2023/01/11,22:00,0.156,0.141,0.222,0.218,0.215,0.123,0.079,�쐼,4.0,��
2023/01/11,22:10,0.156,0.141,0.220,0.217,0.216,0.124,0.079,�쐼,3.9,��
2023/01/11,22:20,0.157,0.142,0.220,0.218,0.215,0.124,0.079,�쐼,4.0,��
2023/01/11,22:30,0.156,0.140,0.221,0.217,0.215,0.124,0.079,�쐼,3.4,��
2023/01/11,22:40,0.157,0.141,0.221,0.216,0.215,0.124,0.079,�쐼,4.2,��
2023/01/11,22:50,0.157,0.141,0.221,0.217,0.215,0.124,0.079,��쐼,3.6,��
2023/01/11,23:00,0.156,0.141,0.220,0.217,0.214,0.123,0.079,�쐼,7.3,��
2023/01/11,23:10,0.156,0.140,0.219,0.217,0.214,0.124,0.079,�쐼,6.3,��
2023/01/11,23:20,0.157,0.139,0.220,0.218,0.215,0.124,0.079,���쐼,6.8,��
2023/01/11,23:30,0.155,0.140,0.221,0.218,0.216,0.124,0.078,��,7.0,��
2023/01/11,23:40,0.156,0.142,0.220,0.218,0.215,0.124,0.078,���쐼,6.4,��
2023/01/11,23:50,0.156,0.141,0.221,0.217,0.215,0.124,0.079,���쐼,7.3,��
